| time (UTC) | temp C | wind direction | speed KPH | gust KPH | rain 1hr cm | rain 24hr cm | rain mn cm | humidity % | barometer mb |
| 20260504025820 | 17 | 98 | 0.0 | 1.6 | 0.00 | 0.00 | 0.00 | 78 | 1020.7 |
| 20260504025317 | 17 | 90 | 0.0 | 0.0 | 0.00 | 0.00 | 0.00 | 78 | 1020.6 |
| 20260504024813 | 17 | 99 | 0.0 | 1.6 | 0.00 | 0.00 | 0.00 | 78 | 1020.8 |
| 20260504024310 | 17 | 106 | 0.0 | 1.6 | 0.00 | 0.00 | 0.00 | 78 | 1020.5 |
| 20260504023807 | 17 | 105 | 1.6 | 1.6 | 0.00 | 0.00 | 0.00 | 78 | 1020.4 |
| 20260504023303 | 17 | 99 | 0.0 | 1.6 | 0.00 | 0.00 | 0.00 | 78 | 1020.7 |
| 20260504022759 | 17 | 106 | 0.0 | 3.2 | 0.00 | 0.00 | 0.00 | 77 | 1020.5 |
| 20260504022255 | 17 | 114 | 1.6 | 1.6 | 0.00 | 0.00 | 0.00 | 77 | 1020.2 |
| 20260504021752 | 17 | 106 | 0.0 | 1.6 | 0.00 | 0.00 | 0.00 | 77 | 1020.3 |
| 20260504021250 | 17 | 99 | 0.0 | 0.0 | 0.00 | 0.00 | 0.00 | 76 | 1020.2 |
| 20260504020747 | 17 | 109 | 0.0 | 1.6 | 0.00 | 0.00 | 0.00 | 76 | 1020.3 |
| 20260504020243 | 18 | 99 | 0.0 | 1.6 | 0.00 | 0.00 | 0.00 | 75 | 1020.2 |
| 20260504015739 | 18 | 145 | 0.0 | 3.2 | 0.00 | 0.00 | 0.00 | 75 | 1019.8 |
| 20260504015236 | 18 | 117 | 0.0 | 1.6 | 0.00 | 0.00 | 0.00 | 75 | 1019.9 |
| 20260504014732 | 18 | 180 | 0.0 | 4.8 | 0.00 | 0.00 | 0.00 | 75 | 1019.8 |
| 20260504014228 | 18 | 106 | 3.2 | 3.2 | 0.00 | 0.00 | 0.00 | 74 | 1019.8 |
| 20260504013726 | 18 | 105 | 0.0 | 3.2 | 0.00 | 0.00 | 0.00 | 74 | 1019.8 |
| 20260504013224 | 18 | 99 | 0.0 | 3.2 | 0.00 | 0.00 | 0.00 | 74 | 1019.6 |
| 20260504012720 | 18 | 114 | 3.2 | 3.2 | 0.00 | 0.00 | 0.00 | 74 | 1019.7 |
| 20260504012218 | 18 | 139 | 0.0 | 3.2 | 0.00 | 0.00 | 0.00 | 74 | 1019.4 |
| 20260504011715 | 18 | 112 | 3.2 | 3.2 | 0.00 | 0.00 | 0.00 | 74 | 1019.4 |
| 20260504011211 | 18 | 126 | 0.0 | 3.2 | 0.00 | 0.00 | 0.00 | 73 | 1019.5 |
| 20260504010708 | 18 | 111 | 1.6 | 3.2 | 0.00 | 0.00 | 0.00 | 73 | 1019.5 |
| 20260504010203 | 18 | 102 | 0.0 | 4.8 | 0.00 | 0.00 | 0.00 | 73 | 1019.4 |
| 20260504005700 | 18 | 81 | 3.2 | 3.2 | 0.00 | 0.00 | 0.00 | 73 | 1019.4 |
| 20260504005157 | 18 | 126 | 1.6 | 3.2 | 0.00 | 0.00 | 0.00 | 73 | 1019.2 |
| 20260504004655 | 18 | 82 | 0.0 | 4.8 | 0.00 | 0.00 | 0.00 | 73 | 1019.1 |
| 20260504004152 | 18 | 114 | 1.6 | 1.6 | 0.00 | 0.00 | 0.00 | 72 | 1018.8 |
| 20260504003648 | 18 | 85 | 3.2 | 3.2 | 0.00 | 0.00 | 0.00 | 72 | 1019.1 |
| 20260504003145 | 19 | 111 | 0.0 | 3.2 | 0.00 | 0.00 | 0.00 | 71 | 1019.2 |
| 20260504002641 | 19 | 99 | 0.0 | 3.2 | 0.00 | 0.00 | 0.00 | 71 | 1019.2 |
| 20260504002139 | 20 | 99 | 0.0 | 3.2 | 0.00 | 0.00 | 0.00 | 70 | 1019.0 |
| 20260504001637 | 20 | 109 | 0.0 | 4.8 | 0.00 | 0.00 | 0.00 | 70 | 1019.3 |
| 20260504001132 | 20 | 120 | 0.0 | 3.2 | 0.00 | 0.00 | 0.00 | 69 | 1019.1 |
| 20260504000630 | 20 | 140 | 3.2 | 3.2 | 0.00 | 0.00 | 0.00 | 68 | 1019.0 |
| 20260504000127 | 20 | 120 | 1.6 | 4.8 | 0.00 | 0.00 | 0.00 | 66 | 1018.9 |
| 20260503235625 | 20 | 109 | 3.2 | 6.4 | 0.00 | 0.00 | 0.00 | 65 | 1019.0 |
| 20260503235122 | 20 | 157 | 4.8 | 4.8 | 0.00 | 0.00 | 0.00 | 63 | 1019.2 |
| 20260503234620 | 21 | 117 | 4.8 | 4.8 | 0.00 | 0.00 | 0.00 | 61 | 1019.0 |
| 20260503234118 | 21 | 132 | 3.2 | 4.8 | 0.00 | 0.00 | 0.00 | 60 | 1019.2 |
| 20260503233615 | 21 | 95 | 3.2 | 6.4 | 0.00 | 0.00 | 0.00 | 58 | 1019.1 |
| 20260503233110 | 21 | 115 | 3.2 | 4.8 | 0.00 | 0.00 | 0.00 | 58 | 1019.1 |
| 20260503232607 | 21 | 95 | 0.0 | 6.4 | 0.00 | 0.00 | 0.00 | 57 | 1019.2 |
| 20260503232105 | 21 | 95 | 0.0 | 4.8 | 0.00 | 0.00 | 0.00 | 56 | 1019.2 |
| 20260503231603 | 21 | 101 | 3.2 | 6.4 | 0.00 | 0.00 | 0.00 | 55 | 1019.0 |
| 20260503231059 | 21 | 90 | 3.2 | 9.7 | 0.00 | 0.00 | 0.00 | 53 | 1019.1 |
| 20260503230555 | 22 | 78 | 4.8 | 6.4 | 0.00 | 0.00 | 0.00 | 51 | 1018.9 |
| 20260503230053 | 22 | 103 | 3.2 | 4.8 | 0.00 | 0.00 | 0.00 | 49 | 1019.1 |
| 20260503225550 | 22 | 165 | 0.0 | 4.8 | 0.00 | 0.00 | 0.00 | 49 | 1018.8 |
| 20260503225045 | 22 | 96 | 1.6 | 4.8 | 0.00 | 0.00 | 0.00 | 50 | 1019.0 |
| 20260503224543 | 22 | 86 | 4.8 | 6.4 | 0.00 | 0.00 | 0.00 | 50 | 1019.2 |
| 20260503224040 | 22 | 96 | 4.8 | 4.8 | 0.00 | 0.00 | 0.00 | 51 | 1019.2 |
| 20260503223538 | 22 | 99 | 3.2 | 6.4 | 0.00 | 0.00 | 0.00 | 49 | 1019.0 |
| 20260503223033 | 22 | 77 | 3.2 | 8.0 | 0.00 | 0.00 | 0.00 | 50 | 1019.1 |
| 20260503222532 | 22 | 131 | 3.2 | 6.4 | 0.00 | 0.00 | 0.00 | 50 | 1019.2 |
| 20260503222029 | 23 | 90 | 4.8 | 4.8 | 0.00 | 0.00 | 0.00 | 49 | 1019.2 |
| 20260503221528 | 22 | 96 | 4.8 | 8.0 | 0.00 | 0.00 | 0.00 | 50 | 1019.0 |
| 20260503221025 | 23 | 96 | 4.8 | 6.4 | 0.00 | 0.00 | 0.00 | 48 | 1019.0 |
| 20260503220521 | 23 | 86 | 8.0 | 11.3 | 0.00 | 0.00 | 0.00 | 49 | 1019.1 |
| 20260503220017 | 22 | 90 | 1.6 | 11.3 | 0.00 | 0.00 | 0.00 | 51 | 1018.9 |
| 20260503215515 | 23 | 87 | 4.8 | 8.0 | 0.00 | 0.00 | 0.00 | 51 | 1019.1 |
| 20260503215012 | 24 | 62 | 4.8 | 8.0 | 0.00 | 0.00 | 0.00 | 47 | 1019.0 |
| 20260503214510 | 23 | 147 | 4.8 | 11.3 | 0.00 | 0.00 | 0.00 | 48 | 1019.2 |
| 20260503214006 | 24 | 75 | 6.4 | 9.7 | 0.00 | 0.00 | 0.00 | 47 | 1018.9 |
| 20260503213505 | 24 | 86 | 4.8 | 8.0 | 0.00 | 0.00 | 0.00 | 49 | 1019.1 |
| 20260503213001 | 23 | 79 | 8.0 | 11.3 | 0.00 | 0.00 | 0.00 | 46 | 1019.0 |
| 20260503212458 | 23 | 76 | 4.8 | 11.3 | 0.00 | 0.00 | 0.00 | 50 | 1019.1 |
| 20260503211956 | 23 | 69 | 8.0 | 9.7 | 0.00 | 0.00 | 0.00 | 47 | 1018.9 |
| 20260503211453 | 23 | 73 | 6.4 | 11.3 | 0.00 | 0.00 | 0.00 | 48 | 1019.0 |
| 20260503210948 | 25 | 105 | 4.8 | 6.4 | 0.00 | 0.00 | 0.00 | 48 | 1018.9 |
| 20260503210445 | 24 | 83 | 4.8 | 12.9 | 0.00 | 0.00 | 0.00 | 46 | 1019.1 |
| 20260503205940 | 23 | 66 | 6.4 | 12.9 | 0.00 | 0.00 | 0.00 | 47 | 1018.9 |
| 20260503205437 | 25 | 90 | 4.8 | 8.0 | 0.00 | 0.00 | 0.00 | 47 | 1019.1 |
| 20260503204933 | 25 | 67 | 4.8 | 11.3 | 0.00 | 0.00 | 0.00 | 46 | 1019.3 |
| 20260503204430 | 25 | 117 | 4.8 | 8.0 | 0.00 | 0.00 | 0.00 | 47 | 1019.1 |
| 20260503203927 | 23 | 87 | 4.8 | 11.3 | 0.00 | 0.00 | 0.00 | 50 | 1019.3 |
| 20260503203425 | 23 | 71 | 8.0 | 11.3 | 0.00 | 0.00 | 0.00 | 47 | 1019.1 |
| 20260503202921 | 23 | 109 | 4.8 | 11.3 | 0.00 | 0.00 | 0.00 | 49 | 1019.3 |
| 20260503202420 | 24 | 178 | 4.8 | 12.9 | 0.00 | 0.00 | 0.00 | 47 | 1019.2 |
| 20260503201918 | 23 | 79 | 4.8 | 11.3 | 0.00 | 0.00 | 0.00 | 50 | 1019.4 |
| 20260503201415 | 23 | 111 | 4.8 | 8.0 | 0.00 | 0.00 | 0.00 | 49 | 1019.4 |
| 20260503200912 | 23 | 161 | 8.0 | 11.3 | 0.00 | 0.00 | 0.00 | 50 | 1019.4 |
| 20260503200408 | 23 | 90 | 9.7 | 12.9 | 0.00 | 0.00 | 0.00 | 50 | 1019.4 |
| 20260503195905 | 25 | 163 | 4.8 | 11.3 | 0.00 | 0.00 | 0.00 | 50 | 1019.6 |
| 20260503195402 | 23 | 67 | 8.0 | 11.3 | 0.00 | 0.00 | 0.00 | 49 | 1019.6 |
| 20260503194859 | 25 | 53 | 0.0 | 6.4 | 0.00 | 0.00 | 0.00 | 48 | 1019.8 |
| 20260503194355 | 23 | 70 | 8.0 | 12.9 | 0.00 | 0.00 | 0.00 | 51 | 1019.7 |
| 20260503193851 | 23 | 94 | 0.0 | 9.7 | 0.00 | 0.00 | 0.00 | 51 | 1019.9 |
| 20260503193347 | 23 | 75 | 6.4 | 11.3 | 0.00 | 0.00 | 0.00 | 49 | 1019.8 |
| 20260503192843 | 23 | 93 | 4.8 | 12.9 | 0.00 | 0.00 | 0.00 | 51 | 1020.1 |
| 20260503192339 | 23 | 132 | 6.4 | 9.7 | 0.00 | 0.00 | 0.00 | 49 | 1020.3 |
| 20260503191835 | 23 | 101 | 9.7 | 9.7 | 0.00 | 0.00 | 0.00 | 51 | 1020.1 |
| 20260503191332 | 24 | 135 | 6.4 | 8.0 | 0.00 | 0.00 | 0.00 | 50 | 1020.3 |
| 20260503190829 | 23 | 62 | 9.7 | 11.3 | 0.00 | 0.00 | 0.00 | 51 | 1020.2 |
| 20260503190326 | 23 | 53 | 0.0 | 9.7 | 0.00 | 0.00 | 0.00 | 51 | 1020.3 |
| 20260503185823 | 23 | 86 | 4.8 | 12.9 | 0.00 | 0.00 | 0.00 | 52 | 1020.6 |
| 20260503185319 | 23 | 90 | 0.0 | 11.3 | 0.00 | 0.00 | 0.00 | 52 | 1020.8 |
| 20260503184814 | 22 | 50 | 12.9 | 19.3 | 0.00 | 0.00 | 0.00 | 52 | 1020.5 |
| 20260503184310 | 23 | 127 | 4.8 | 14.5 | 0.00 | 0.00 | 0.00 | 51 | 1020.7 |
| 20260503183806 | 23 | 90 | 6.4 | 11.3 | 0.00 | 0.00 | 0.00 | 54 | 1020.6 |
| 20260503183303 | 23 | 83 | 4.8 | 11.3 | 0.00 | 0.00 | 0.00 | 51 | 1020.7 |
| 20260503182801 | 25 | 73 | 8.0 | 8.0 | 0.00 | 0.00 | 0.00 | 51 | 1020.6 |
| 20260503182300 | 23 | 110 | 3.2 | 14.5 | 0.00 | 0.00 | 0.00 | 54 | 1020.7 |
| 20260503181756 | 22 | 86 | 4.8 | 9.7 | 0.00 | 0.00 | 0.00 | 56 | 1020.7 |
| 20260503181253 | 23 | 62 | 6.4 | 11.3 | 0.00 | 0.00 | 0.00 | 50 | 1020.7 |
| 20260503180749 | 23 | 86 | 3.2 | 11.3 | 0.00 | 0.00 | 0.00 | 53 | 1020.8 |
| 20260503180248 | 23 | 69 | 9.7 | 14.5 | 0.00 | 0.00 | 0.00 | 52 | 1020.8 |
| 20260503175744 | 23 | 64 | 6.4 | 8.0 | 0.00 | 0.00 | 0.00 | 55 | 1020.9 |
| 20260503175242 | 23 | 75 | 8.0 | 14.5 | 0.00 | 0.00 | 0.00 | 54 | 1020.8 |
| 20260503174738 | 23 | 77 | 8.0 | 12.9 | 0.00 | 0.00 | 0.00 | 53 | 1021.1 |
| 20260503174236 | 23 | 90 | 6.4 | 14.5 | 0.00 | 0.00 | 0.00 | 52 | 1021.0 |
| 20260503173736 | 23 | 97 | 6.4 | 8.0 | 0.00 | 0.00 | 0.00 | 54 | 1021.1 |
| 20260503173232 | 23 | 115 | 3.2 | 11.3 | 0.00 | 0.00 | 0.00 | 53 | 1021.1 |
| 20260503172729 | 23 | 71 | 6.4 | 9.7 | 0.00 | 0.00 | 0.00 | 53 | 1021.2 |
| 20260503172227 | 22 | 70 | 0.0 | 8.0 | 0.00 | 0.00 | 0.00 | 54 | 1021.2 |
| 20260503171723 | 22 | 69 | 8.0 | 12.9 | 0.00 | 0.00 | 0.00 | 53 | 1021.3 |
| 20260503171220 | 23 | 98 | 8.0 | 11.3 | 0.00 | 0.00 | 0.00 | 56 | 1021.1 |
| 20260503170717 | 22 | 66 | 4.8 | 8.0 | 0.00 | 0.00 | 0.00 | 53 | 1021.2 |
| 20260503170214 | 22 | 60 | 4.8 | 9.7 | 0.00 | 0.00 | 0.00 | 54 | 1021.4 |
| 20260503160136 | 21 | 55 | 11.3 | 11.3 | 0.00 | 0.00 | 0.00 | 60 | 1021.7 |
| 20260503150606 | 19 | 57 | 3.2 | 9.7 | 0.00 | 0.00 | 0.00 | 72 | 1021.4 |
| 20260503130955 | 16 | 69 | 1.6 | 8.0 | 0.00 | 0.00 | 0.00 | 86 | 1020.6 |
| 20260503130453 | 15 | 75 | 3.2 | 8.0 | 0.00 | 0.00 | 0.00 | 87 | 1020.5 |
| 20260503110344 | 13 | 41 | 3.2 | 3.2 | 0.00 | 0.00 | 0.00 | 94 | 1019.6 |
| 20260503090235 | 13 | 63 | 1.6 | 3.2 | 0.00 | 0.00 | 0.00 | 93 | 1018.4 |
| 20260503081202 | 13 | 4 | 0.0 | 3.2 | 0.00 | 0.00 | 0.00 | 93 | 1018.2 |
| 20260503080658 | 14 | 40 | 3.2 | 3.2 | 0.00 | 0.00 | 0.00 | 93 | 1018.4 |
| 20260503080155 | 13 | 353 | 1.6 | 3.2 | 0.00 | 0.00 | 0.00 | 93 | 1018.3 |
| 20260503072632 | 14 | 23 | 1.6 | 8.0 | 0.00 | 0.00 | 0.00 | 93 | 1017.9 |
| 20260503072129 | 14 | 279 | 4.8 | 8.0 | 0.00 | 0.00 | 0.00 | 93 | 1018.1 |
| 20260503071625 | 14 | 0 | 3.2 | 8.0 | 0.00 | 0.00 | 0.00 | 93 | 1018.1 |
| 20260503071122 | 15 | 40 | 0.0 | 6.4 | 0.00 | 0.00 | 0.00 | 93 | 1018.3 |
| 20260503070619 | 14 | 0 | 3.2 | 6.4 | 0.00 | 0.00 | 0.00 | 93 | 1018.1 |
| 20260503070118 | 14 | 55 | 3.2 | 4.8 | 0.00 | 0.00 | 0.00 | 93 | 1018.2 |
| 20260503055038 | 15 | 60 | 0.0 | 4.8 | 0.00 | 0.00 | 0.00 | 92 | 1017.7 |
| 20260503054533 | 15 | 8 | 0.0 | 3.2 | 0.00 | 0.00 | 0.00 | 92 | 1017.6 |
| 20260503054031 | 15 | 32 | 0.0 | 4.8 | 0.00 | 0.00 | 0.00 | 92 | 1017.4 |
| 20260503053529 | 15 | 51 | 3.2 | 4.8 | 0.00 | 0.00 | 0.00 | 92 | 1017.5 |
| 20260503053027 | 15 | 49 | 0.0 | 4.8 | 0.00 | 0.00 | 0.00 | 92 | 1017.6 |
| 20260503052523 | 15 | 0 | 3.2 | 4.8 | 0.00 | 0.00 | 0.00 | 92 | 1017.5 |
| 20260503052019 | 15 | 40 | 0.0 | 3.2 | 0.00 | 0.00 | 0.00 | 92 | 1017.4 |
| 20260503051515 | 15 | 15 | 0.0 | 3.2 | 0.00 | 0.00 | 0.00 | 92 | 1017.7 |
| 20260503051013 | 15 | 40 | 4.8 | 4.8 | 0.00 | 0.00 | 0.00 | 92 | 1017.4 |
| 20260503050508 | 15 | 66 | 0.0 | 4.8 | 0.00 | 0.00 | 0.00 | 91 | 1017.3 |
| 20260503050006 | 15 | 74 | 1.6 | 3.2 | 0.00 | 0.00 | 0.00 | 91 | 1017.5 |
| 20260503045503 | 15 | 49 | 0.0 | 3.2 | 0.00 | 0.00 | 0.00 | 91 | 1017.3 |
| 20260503045000 | 15 | 0 | 3.2 | 6.4 | 0.00 | 0.00 | 0.00 | 91 | 1017.6 |
| 20260503044457 | 15 | 53 | 3.2 | 4.8 | 0.00 | 0.00 | 0.00 | 91 | 1017.4 |
| 20260503043954 | 15 | 75 | 1.6 | 3.2 | 0.00 | 0.00 | 0.00 | 91 | 1017.3 |
| 20260503043450 | 15 | 35 | 1.6 | 3.2 | 0.00 | 0.00 | 0.00 | 91 | 1017.3 |
| 20260503042947 | 15 | 60 | 1.6 | 4.8 | 0.00 | 0.00 | 0.00 | 91 | 1017.4 |
| 20260503042444 | 15 | 319 | 0.0 | 3.2 | 0.00 | 0.00 | 0.00 | 91 | 1017.1 |
| 20260503041941 | 15 | 49 | 3.2 | 4.8 | 0.00 | 0.00 | 0.00 | 91 | 1016.9 |
| 20260503041437 | 15 | 50 | 3.2 | 4.8 | 0.00 | 0.00 | 0.00 | 91 | 1017.0 |
| 20260503040935 | 15 | 32 | 3.2 | 4.8 | 0.00 | 0.00 | 0.00 | 91 | 1017.0 |
| 20260503040432 | 15 | 67 | 3.2 | 4.8 | 0.00 | 0.00 | 0.00 | 91 | 1016.9 |
| 20260503035929 | 15 | 0 | 0.0 | 3.2 | 0.00 | 0.74 | 0.74 | 91 | 1016.7 |
| 20260503035426 | 15 | 0 | 0.0 | 3.2 | 0.00 | 0.74 | 0.74 | 91 | 1016.8 |
| 20260503034923 | 15 | 84 | 1.6 | 3.2 | 0.00 | 0.74 | 0.74 | 91 | 1016.8 |
| 20260503034421 | 15 | 294 | 3.2 | 4.8 | 0.00 | 0.74 | 0.74 | 91 | 1016.5 |
| 20260503033918 | 15 | 315 | 6.4 | 8.0 | 0.00 | 0.74 | 0.74 | 91 | 1016.6 |
| 20260503033415 | 15 | 8 | 0.0 | 3.2 | 0.00 | 0.74 | 0.74 | 91 | 1016.4 |
| 20260503032913 | 15 | 341 | 4.8 | 4.8 | 0.00 | 0.74 | 0.74 | 90 | 1016.7 |
| 20260503032412 | 15 | 328 | 3.2 | 8.0 | 0.00 | 0.74 | 0.74 | 90 | 1016.6 |
| 20260503031909 | 16 | 32 | 3.2 | 4.8 | 0.00 | 0.74 | 0.74 | 90 | 1016.6 |
| 20260503031406 | 16 | 60 | 0.0 | 4.8 | 0.00 | 0.74 | 0.74 | 90 | 1016.4 |
| 20260503030903 | 16 | 79 | 0.0 | 4.8 | 0.00 | 0.74 | 0.74 | 90 | 1016.3 |
| 20260503030359 | 16 | 0 | 0.0 | 4.8 | 0.00 | 0.74 | 0.74 | 90 | 1016.1 |